{"data":{"norad_id":59941,"epoch":"2026-09-21T10:05:14.031456Z","epoch_age_seconds":98028,"freshness":"FRESH","line1":"1 59941U 24106V   26264.42030129 -.00001424  00000+0 -42269-4 0  9991","line2":"2 59941  42.9987 303.8828 0000228 252.2750 107.8077 15.27558592130492","mean_motion":15.27558592,"eccentricity":2.28e-5,"inclination_deg":42.9987,"raan_deg":303.8828,"arg_perigee_deg":252.275,"mean_anomaly_deg":107.8077,"bstar":-4.2269e-5,"rev_number":13049,"period_min":94.26806981686,"perigee_km":482.95676353723,"apogee_km":483.26963654635,"semimajor_km":6861.2502000418,"source":"CELESTRAK","updated_at":"2026-09-22T09:00:49.114759Z"}}